Location: Le Petit-Vavre
(46.5081°N, 1.5239°E)
Time: 07:30:23
(UTC+00:00)

Okean 1-7 - Pass Details

Date: 03 March 2021
Orbit: 589 x 619 km, 82.5° (Epoch: 18 April)

Event Time Altitude Azimuth Distance (km) Brightness Sun altitude
Rises 19:34:35 0° 348° (NNW) 2,898 6.8 -19.9°
Reaches altitude 10° 19:36:51 10° 345° (NNW) 1,984 6.0 -20.3°
Maximum altitude 19:41:11 64° 265° (W) 677 3.4 -21.0°
Drops below altitude 10° 19:45:28 10° 183° (S) 1,950 5.5 -21.7°
Enters shadow 19:45:41 - 183° (S) 2,038 5.6 -21.8°
